Location: Wharf Road Observatory
(44.7802°N, 65.6070°W)
Time: 05:12:35
(UTC-03:00)

Tiangong - Visible Passes

Search period start: 24 September 2023 00:00
Search period end: 04 October 2023 00:00
Orbit: 374 x 385 km, 41.5° (Epoch: 23 September)

Date Brightness Start Highest point End Pass type
(mag) Time Alt. Az. Time Alt. Az. Time Alt. Az.
28 Sep 0.2 20:04:58 10° SSE 20:05:23 10° SSE 20:05:47 10° SE visible
29 Sep -0.5 20:37:36 10° SSW 20:39:32 21° S 20:39:32 21° S visible
30 Sep -0.1 19:36:49 10° SSW 19:38:44 15° SSE 19:40:41 10° ESE visible
30 Sep 0.2 21:12:03 10° WSW 21:13:08 19° SW 21:13:08 19° SW visible
01 Oct -1.0 20:10:41 10° SW 20:13:28 30° SSE 20:14:30 24° SE visible
02 Oct -1.3 20:45:18 10° WSW 20:47:50 40° SSW 20:47:50 40° SSW visible
03 Oct -1.3 19:43:45 10° WSW 19:46:40 37° S 19:49:00 14° ESE visible
03 Oct 0.5 21:20:07 10° WSW 21:21:05 18° WSW 21:21:05 18° WSW visible
